Theta_e
320 319 315 315 314 314 313 314 314 313 312 312 312 310 309 308 307 306 302 299 294 294 295 294 294 294 294 293 293 292 293 295 296 296 296 296 297 305 316 320 322 320 322 324 324 325 324 324 324 323 323 322 322 322 322 321 321 320 320 321 322 320 318 317 317 317 317 318 318 318 318 319 320 320 321 321 322 324 325 327 327 328 328 329 330
319 316 316 315 313 313 313 313 313 313 313 313 310 310 309 306 306 305 303 299 295 296 295 294 294 294 293 294 293 294 294 294 295 298 296 295 296 301 313 316 322 321 320 321 324 324 325 324 324 324 323 322 322 323 322 322 320 320 320 320 321 320 318 317 317 316 316 317 317 317 317 318 319 320 320 320 320 320 321 322 323 324 325 326 327
319 317 315 315 313 313 313 312 312 312 313 313 309 310 308 308 307 306 303 298 296 294 294 294 294 294 294 293 294 293 294 293 295 296 297 297 296 298 304 313 318 321 322 321 321 322 322 323 323 323 323 322 322 322 322 320 319 319 319 319 319 319 317 316 316 316 316 316 316 316 316 317 318 318 318 319 319 319 320 319 320 321 321 322 324
318 316 316 314 313 313 312 312 312 311 312 311 309 309 307 305 303 304 301 297 295 293 293 293 293 295 292 292 292 293 293 292 295 296 296 296 296 296 298 304 313 317 321 322 321 321 323 324 324 324 325 325 325 323 322 322 321 319 318 319 319 320 317 316 316 316 316 316 316 316 316 316 317 317 317 318 318 318 318 318 319 319 319 319 320
318 317 315 314 313 312 311 311 312 312 311 309 308 306 304 301 300 299 297 295 294 293 293 292 293 293 292 292 292 292 292 291 293 295 296 297 297 296 296 299 301 310 314 318 322 323 323 324 324 324 324 323 323 323 323 321 320 319 318 319 320 320 318 316 316 316 316 315 315 316 316 316 316 317 317 316 316 316 317 317 317 318 318 319 319
318 315 315 314 312 312 312 311 311 310 310 308 308 305 303 300 299 297 297 295 294 293 292 291 291 291 292 290 290 292 292 292 292 295 296 297 297 295 296 296 297 298 301 312 316 320 322 322 323 323 322 322 322 322 324 321 320 319 318 319 322 319 318 317 316 315 315 315 315 315 315 315 316 316 316 316 316 316 316 316 316 316 317 318 318
317 317 314 313 312 311 311 312 310 309 310 308 308 303 302 301 296 296 293 293 292 292 292 292 291 292 292 291 292 290 290 292 291 292 294 295 296 296 296 295 295 296 298 297 305 311 318 320 321 322 322 321 320 321 323 320 320 318 319 319 318 316 316 316 316 316 315 314 314 314 314 314 315 315 315 315 315 315 315 315 315 315 316 317 316
315 315 315 313 313 312 312 309 309 309 309 306 306 303 300 299 296 296 293 292 291 291 290 291 290 292 290 291 290 291 290 290 291 291 292 293 297 297 297 296 295 295 298 295 297 303 311 316 318 319 319 320 319 318 320 320 319 319 318 318 318 317 316 316 315 315 314 314 313 313 314 314 314 314 314 314 314 313 313 313 314 314 314 315 316
314 314 315 313 312 312 309 309 308 308 307 305 304 303 299 299 295 294 295 293 291 290 289 289 290 291 290 289 290 291 291 291 291 292 291 291 294 296 295 295 294 300 294 293 294 296 305 311 314 314 316 318 318 318 319 320 319 319 318 318 318 317 316 316 315 315 314 313 313 313 313 313 313 313 313 313 312 312 312 312 312 313 313 314 315
314 314 314 313 313 312 309 308 307 307 305 303 304 299 298 298 296 293 293 292 291 290 290 289 290 290 290 289 289 289 290 290 291 294 291 291 291 293 296 296 295 295 293 293 293 294 297 305 309 309 309 314 318 319 319 319 319 319 318 318 317 317 316 316 315 315 314 313 312 312 312 312 312 312 312 312 311 311 311 311 312 312 313 313 314
314 313 313 312 311 311 310 308 307 306 304 302 299 296 296 296 297 293 291 291 292 291 290 290 289 289 288 288 288 288 288 289 291 292 290 291 291 293 291 293 294 293 293 292 292 292 293 293 293 294 297 310 316 318 318 318 318 318 318 317 317 317 317 316 315 315 313 313 312 312 312 312 311 311 311 311 311 311 311 311 311 312 312 313 314
313 313 313 311 311 310 310 307 306 305 304 301 298 296 296 295 295 294 292 290 289 288 288 289 287 287 288 288 287 287 288 289 289 289 291 290 291 291 290 290 292 292 292 292 291 292 292 291 292 292 292 301 310 312 315 315 315 318 317 317 318 317 317 316 315 314 313 313 312 312 311 311 311 311 310 310 310 310 310 311 311 311 312 312 312
310 311 311 309 310 309 308 306 304 304 304 304 302 300 299 297 295 292 292 290 288 287 288 289 288 287 286 285 287 286 288 289 287 289 290 289 289 290 289 289 287 289 291 290 289 289 290 290 290 291 292 292 298 307 309 310 309 314 318 317 317 318 318 316 315 314 313 312 312 312 311 311 311 311 310 310 310 310 310 310 311 311 311 311 311
309 308 308 307 306 305 306 306 305 305 305 304 301 299 297 296 294 292 290 291 290 288 290 290 287 285 285 285 285 286 286 287 287 288 288 288 289 290 290 289 289 288 287 288 288 288 288 289 289 289 290 291 294 296 299 299 301 310 316 318 318 318 318 317 315 313 313 312 312 312 312 311 311 311 310 310 310 309 309 310 311 311 311 311 311
307 307 308 306 305 304 302 302 302 302 302 301 300 298 297 296 294 296 292 289 289 288 289 290 287 284 282 283 282 284 286 287 287 288 288 287 288 289 290 289 289 288 288 288 288 287 287 288 288 288 287 288 291 292 294 295 294 299 307 312 316 320 320 317 316 315 314 312 311 312 311 311 311 310 310 310 309 309 310 311 311 310 310 311 311
302 303 304 303 303 303 301 301 301 301 302 301 299 299 297 295 294 294 295 292 290 290 290 290 286 287 284 285 281 281 280 283 286 286 287 288 288 289 288 289 289 288 287 288 288 287 288 287 288 288 287 287 289 291 292 290 294 297 298 302 305 312 317 319 317 316 315 313 312 311 311 311 311 310 310 310 309 309 310 310 310 310 310 310 310
299 299 299 298 298 300 300 300 300 300 300 300 299 299 298 297 296 295 293 295 293 290 291 291 289 290 288 281 281 282 281 279 281 283 283 286 287 288 289 289 288 288 287 287 287 287 288 287 287 287 287 287 287 289 291 290 291 293 294 294 298 305 311 318 319 316 316 314 313 311 311 311 310 310 310 310 309 309 309 310 310 310 310 310 310
298 298 297 297 297 295 295 296 297 299 299 300 299 299 298 296 296 295 294 294 295 292 290 291 292 290 287 285 285 282 282 280 283 282 281 283 285 286 287 288 287 288 287 287 287 287 287 288 287 287 287 287 287 289 289 289 290 290 290 293 302 306 309 312 317 318 316 315 314 313 312 311 310 310 310 310 309 309 309 309 310 310 310 310 310
295 296 296 296 296 295 294 294 294 295 296 298 297 297 298 297 296 295 295 295 292 291 291 291 291 291 290 288 286 284 282 283 283 281 281 282 283 285 286 285 285 286 287 287 287 287 287 287 287 287 287 287 287 288 289 289 292 292 295 297 303 307 309 310 312 316 316 315 314 313 312 311 310 310 310 309 309 309 309 309 309 309 309 309 309
292 292 292 293 293 295 295 294 293 291 293 294 295 295 296 297 296 296 295 294 293 292 292 291 290 291 292 291 289 286 283 284 281 284 283 281 281 282 282 285 285 286 287 287 287 287 287 287 287 287 286 287 287 288 289 289 289 290 292 298 302 306 309 309 311 312 314 313 314 313 313 312 311 311 309 309 309 309 309 308 309 309 309 309 309
290 291 291 291 291 292 293 294 294 292 290 291 291 292 293 294 294 295 294 294 294 293 292 292 291 291 290 290 290 289 287 286 284 283 283 281 282 281 282 283 283 285 286 287 287 287 288 287 287 287 287 287 287 287 288 288 288 289 292 297 302 306 309 310 308 310 312 312 312 312 312 312 312 311 310 309 308 309 309 308 308 308 309 309 309
289 289 290 290 290 290 291 291 292 292 291 290 289 289 290 291 293 294 294 294 294 293 292 293 292 292 292 292 289 289 287 287 284 284 284 283 285 283 281 282 283 285 287 287 287 287 287 286 286 287 287 287 287 287 287 288 288 288 290 296 300 304 307 308 308 307 309 310 310 310 311 311 311 312 311 310 309 309 309 309 308 308 309 309 309
288 288 289 289 289 289 289 290 291 291 292 292 292 291 290 289 289 289 291 293 293 293 293 292 292 291 291 291 291 290 289 288 287 286 286 285 283 283 281 282 284 284 284 287 288 287 286 285 286 286 287 287 287 286 287 287 289 290 292 295 299 302 305 307 308 307 307 307 309 309 309 309 309 310 311 310 309 308 309 309 308 308 308 308 309
287 287 287 288 288 288 288 289 289 290 290 291 291 291 290 289 288 288 288 289 291 291 292 292 292 291 291 291 291 291 291 290 289 289 288 287 286 286 285 280 282 283 283 281 283 286 286 286 286 287 287 287 287 287 287 288 288 292 291 293 298 301 305 308 308 306 306 306 307 307 307 307 307 308 309 310 309 309 309 309 308 308 308 309 308
285 285 286 287 287 287 287 287 288 288 289 289 290 290 290 290 290 289 287 287 288 288 288 290 291 291 291 291 291 291 290 291 290 289 289 289 287 286 285 280 285 281 281 282 283 283 286 286 286 286 287 286 287 287 287 287 287 290 292 291 296 299 301 304 306 305 305 304 305 305 306 306 306 306 307 308 309 309 310 309 308 309 308 308 308
283 284 285 286 286 286 286 286 287 287 287 288 288 288 289 289 289 288 288 288 286 286 286 286 287 288 289 289 289 289 290 290 290 289 289 288 287 287 287 284 281 283 280 280 280 283 282 285 286 287 286 286 287 287 286 287 287 290 292 289 292 297 300 302 304 305 304 304 303 303 303 303 304 304 305 308 308 308 309 309 308 309 309 308 308
284 284 284 284 285 285 285 285 286 286 286 286 287 287 287 287 287 287 287 287 286 285 285 285 286 286 286 286 286 287 287 287 288 289 290 289 289 288 287 285 285 282 282 282 280 282 283 282 285 285 286 286 286 286 287 286 288 290 291 290 288 294 298 301 303 304 303 302 302 302 301 301 302 303 304 305 307 307 307 308 309 309 309 309 308
284 284 284 284 284 284 284 284 285 285 284 285 285 285 285 285 286 286 286 288 286 286 286 284 284 284 285 285 284 285 285 285 285 287 288 288 289 289 288 287 285 284 283 283 282 282 282 283 282 285 286 286 286 287 288 288 287 291 290 289 288 289 296 299 301 302 303 302 301 301 301 300 300 301 302 302 303 303 304 306 307 306 305 306 306
283 284 284 284 284 284 284 284 284 284 284 284 283 284 284 284 284 285 285 286 285 285 286 285 285 284 284 284 284 285 285 285 284 284 284 285 286 287 288 288 288 285 284 283 284 282 281 283 283 283 285 286 286 287 287 286 288 288 288 288 288 287 292 297 300 301 303 303 301 300 299 299 300 300 300 301 301 301 302 303 304 304 303 304 305
281 282 282 282 283 283 282 283 283 283 283 283 283 284 284 283 283 284 284 284 284 285 285 285 285 285 285 284 284 284 284 284 284 284 283 284 284 284 285 286 287 286 285 283 284 283 281 282 284 284 283 285 286 286 286 286 289 288 287 288 288 287 291 295 298 300 301 302 301 300 300 300 299 299 299 300 299 300 302 302 302 303 300 302 303
280 280 280 280 280 280 281 281 281 281 282 282 283 283 283 283 283 284 284 284 284 284 285 285 285 285 285 284 285 284 284 284 284 283 283 283 284 283 283 284 284 285 285 284 282 285 285 284 283 284 284 284 285 286 286 286 288 288 287 287 287 289 290 291 295 298 299 300 301 300 300 300 299 298 298 298 299 299 300 301 301 302 301 301 302
280 280 280 280 280 279 280 280 280 280 280 280 281 281 282 282 282 283 283 284 283 283 283 284 285 285 284 284 284 284 285 284 284 284 284 283 283 283 283 283 283 283 284 284 283 283 283 284 284 284 285 284 284 284 284 285 287 288 286 287 287 289 287 287 292 296 297 299 301 300 300 300 299 298 298 298 298 299 299 300 301 301 301 300 301
280 280 280 280 280 280 280 280 280 280 280 281 281 280 279 280 281 281 282 282 282 283 283 284 284 284 284 284 285 285 285 284 284 284 284 283 283 283 283 283 283 283 282 282 282 283 284 282 283 283 284 283 282 283 284 284 284 285 287 286 286 286 285 286 287 291 295 297 300 300 299 299 299 298 298 297 297 298 299 299 300 299 299 299 300
280 280 280 280 280 280 279 280 279 279 280 280 280 279 279 279 279 281 282 281 281 281 282 282 282 284 284 283 283 284 284 284 284 284 284 284 283 282 282 282 283 283 283 283 283 283 283 282 281 280 280 282 283 283 283 283 283 284 284 285 285 285 285 285 285 286 293 296 298 299 299 299 299 299 298 297 297 297 298 299 298 298 298 298 298
279 279 280 280 280 280 280 280 280 279 279 279 279 278 278 278 279 279 280 280 280 280 281 281 281 282 282 283 283 283 284 283 283 283 283 283 283 283 283 283 282 283 283 283 283 283 283 283 282 282 280 281 282 283 283 284 285 284 284 284 285 285 285 284 284 284 290 294 296 297 298 298 298 298 298 297 297 296 297 298 298 298 298 298 298
278 279 278 279 279 279 279 279 279 279 279 279 279 279 278 278 278 278 279 279 279 280 280 281 281 281 281 281 282 282 282 282 283 283 282 282 282 282 283 283 282 283 283 282 282 283 283 283 282 282 281 280 281 282 283 284 284 283 283 284 284 284 284 284 283 283 286 292 294 296 297 298 297 298 298 297 297 297 297 297 297 297 297 297 297
278 278 278 277 277 278 278 278 278 278 279 279 279 279 279 278 278 278 278 278 278 278 279 280 281 281 281 281 281 281 281 281 282 282 282 282 282 282 282 282 282 282 283 282 282 282 282 282 283 281 281 280 281 281 282 282 282 282 282 282 283 283 283 282 283 283 286 289 292 294 295 297 297 297 297 297 297 297 297 297 297 297 296 296 296
277 277 277 277 277 277 278 278 278 278 278 278 278 278 278 278 278 278 278 278 278 278 278 279 279 280 281 281 280 281 280 280 281 281 282 282 282 282 282 282 282 282 281 281 282 282 281 282 282 282 279 279 280 280 280 282 282 280 280 281 280 281 281 280 281 282 283 284 285 288 292 294 296 296 297 297 297 297 297 297 296 297 296 295 295
276 276 276 276 277 277 277 277 277 277 277 278 278 277 277 277 277 277 277 278 278 278 278 278 279 279 280 280 280 280 280 281 281 281 281 281 282 282 282 282 282 282 281 281 281 281 281 281 281 282 281 280 280 281 280 281 282 282 281 280 279 280 279 280 280 281 282 282 285 288 289 290 292 293 294 296 297 297 297 296 296 296 295 294 294
276 276 276 276 276 276 276 276 277 277 277 277 277 277 277 276 276 276 277 277 277 277 278 278 279 279 279 280 280 280 280 281 281 281 281 281 281 281 282 282 282 282 281 282 281 281 281 281 281 281 280 280 278 279 279 279 279 280 281 281 279 279 278 280 281 281 280 281 280 281 287 289 290 292 294 295 295 296 296 295 295 294 294 294 294
277 276 276 276 276 276 276 276 276 276 276 276 276 276 276 276 277 276 277 277 277 277 278 278 279 279 280 280 280 280 281 282 284 284 284 285 282 281 281 282 281 281 281 281 281 281 281 281 281 281 280 278 279 279 278 278 279 280 280 279 279 281 280 279 279 281 281 279 280 280 281 283 285 285 287 288 290 293 293 294 293 293 294 295 294
274 275 274 275 275 275 275 275 276 276 276 276 278 280 281 279 278 278 278 277 277 277 277 277 278 278 279 279 280 282 283 283 284 285 286 286 287 285 283 282 281 281 281 281 281 281 281 280 281 281 280 280 280 279 279 280 281 280 279 279 279 279 277 278 279 279 281 279 278 278 279 282 283 283 284 285 287 289 290 291 291 292 293 294 294
272 273 273 273 274 274 274 274 274 275 275 276 279 280 281 282 279 278 277 277 277 277 277 276 276 277 278 279 279 280 281 281 281 283 284 285 286 287 287 287 286 283 281 281 281 281 281 281 281 281 281 281 281 281 280 280 280 280 281 280 280 279 277 277 276 278 280 280 278 277 278 280 282 281 283 284 285 286 288 289 292 293 293 294 294
271 272 271 272 272 272 272 272 272 273 273 276 279 279 280 280 280 277 277 277 277 276 276 276 276 276 277 277 278 279 279 279 280 280 282 283 285 285 286 287 287 288 288 284 282 281 281 281 281 281 282 282 282 282 280 280 279 279 280 280 280 279 278 278 279 279 278 281 278 278 278 280 282 281 281 283 284 285 286 289 292 293 294 294 294
269 269 269 269 269 269 270 269 270 270 271 274 276 277 278 278 279 278 276 276 276 276 276 276 276 275 275 276 276 277 278 281 280 280 280 280 283 284 285 286 286 287 288 289 289 286 284 282 282 282 282 283 283 283 283 281 282 280 280 280 280 280 280 279 280 281 278 281 279 278 277 279 280 280 280 282 283 283 285 289 292 293 294 294 294
266 266 266 266 266 267 267 267 267 268 268 271 274 275 276 277 277 277 274 274 274 274 274 274 274 274 274 274 274 275 276 277 277 278 278 278 279 279 280 280 281 282 285 287 287 288 287 285 283 282 284 284 283 284 285 284 282 281 281 280 280 280 280 280 282 282 279 281 279 279 278 279 279 279 279 280 282 282 283 286 291 292 294 294 294
264 264 264 264 264 265 265 265 265 265 265 270 272 273 274 275 276 276 273 273 273 273 274 274 274 274 274 274 274 273 274 274 276 277 277 278 279 279 279 279 279 280 281 281 282 283 284 285 285 285 285 285 285 285 285 284 284 284 284 283 283 282 282 282 282 282 280 281 281 280 277 280 280 278 278 280 281 281 282 286 289 291 293 293 293
263 263 263 263 263 263 263 263 263 262 263 269 271 272 273 274 275 271 270 269 269 269 270 271 271 272 273 273 272 272 272 273 276 278 278 277 276 276 277 278 279 280 280 283 285 285 284 284 284 285 285 286 288 286 286 285 283 284 284 284 283 283 281 280 279 280 280 280 280 280 279 280 279 278 278 279 280 279 280 281 286 290 292 293 293
261 261 261 261 262 262 262 262 261 262 262 266 270 271 272 273 272 268 268 268 268 268 268 269 269 270 270 271 271 271 271 271 274 277 278 278 275 275 275 276 277 278 279 281 284 286 287 288 288 288 289 290 290 291 291 291 287 284 283 282 280 281 280 278 279 279 279 279 279 280 280 279 278 279 278 278 278 278 279 279 281 286 290 291 292
260 260 260 260 261 261 261 261 261 261 261 265 269 270 271 272 271 268 268 267 267 268 268 269 269 270 270 273 273 272 272 272 276 277 278 276 274 275 275 276 276 277 278 280 281 282 285 287 288 288 288 289 290 291 291 291 291 289 282 280 282 282 279 280 279 280 280 280 279 281 278 279 280 278 277 276 277 277 278 279 279 281 286 289 291
260 260 260 260 260 260 260 260 263 262 261 263 268 269 270 271 269 268 268 267 267 267 267 267 268 268 269 270 272 272 272 272 276 277 277 276 273 273 274 274 273 274 277 280 279 279 280 280 281 283 284 286 286 286 287 290 290 289 287 284 284 282 280 280 280 280 279 280 281 281 278 278 279 277 278 274 273 275 277 278 279 279 281 284 287
Wind_Speed
7 7 5 6 5 5 5 6 5 5 5 5 6 6 5 6 6 6 6 5 4 4 4 4 4 4 5 4 4 4 4 4 4 4 3 3 2 1 1 1 1 1 2 5 6 6 7 8 7 5 5 6 6 6 6 4 5 3 3 4 7 5 2 1 1 1 0 2 1 1 1 1 1 1 2 1 2 3 4 5 7 7 7 7 7
6 5 7 6 5 5 5 5 6 5 6 6 5 5 6 5 5 6 6 5 4 5 4 5 4 4 5 5 4 5 5 5 4 5 4 3 2 1 1 1 1 1 2 3 6 6 6 8 7 7 7 7 8 8 6 7 6 6 7 5 6 6 3 2 2 1 0 0 1 1 1 1 2 1 1 2 1 1 1 1 2 4 5 6 7
6 7 6 6 6 6 6 5 5 5 5 5 4 5 5 6 6 6 6 5 5 3 5 5 5 5 4 5 6 4 4 4 4 4 4 4 3 2 1 2 2 2 1 5 6 7 6 7 8 7 7 8 9 11 8 6 6 5 7 5 5 5 2 2 3 2 1 2 2 2 1 1 1 2 2 2 2 2 2 1 1 1 1 3 4
6 6 7 6 6 6 6 6 6 5 5 5 6 4 5 4 4 4 4 4 4 3 3 4 5 5 4 4 4 4 4 4 4 4 4 3 3 2 2 1 2 3 3 2 6 4 4 4 4 2 3 3 10 13 10 12 9 6 2 5 4 8 6 4 3 3 3 4 3 3 3 2 2 2 2 2 2 2 2 1 1 1 1 1 2
6 7 7 7 7 7 6 6 6 6 5 5 5 4 4 4 3 2 3 3 3 4 2 3 4 5 4 4 4 4 4 4 4 4 4 4 4 3 2 1 1 3 4 4 4 5 5 4 4 2 1 2 3 12 11 11 8 8 7 7 8 7 5 5 4 4 5 4 4 4 4 4 4 4 3 3 3 3 3 3 2 2 2 2 2
6 6 6 6 6 7 7 7 6 5 5 5 6 5 5 4 4 4 4 4 5 4 4 5 4 3 4 4 4 5 4 4 4 5 4 4 3 3 3 1 1 1 1 3 4 4 4 4 3 2 2 2 3 6 14 7 9 10 7 8 11 8 7 7 6 6 6 5 5 5 4 5 5 4 4 4 4 3 2 2 2 2 3 3 3
6 7 6 6 6 6 6 7 6 6 6 6 7 6 6 6 6 5 3 4 4 5 5 6 4 6 5 4 5 4 3 4 4 4 4 4 3 3 3 3 2 1 1 1 3 3 3 4 3 3 2 2 3 7 9 8 9 9 9 9 6 1 4 6 8 7 6 5 5 5 5 5 6 6 5 1 1 2 1 2 1 1 1 2 2
7 7 7 6 7 7 7 6 6 6 6 5 5 6 6 5 5 6 6 5 4 6 3 5 4 5 4 4 4 4 5 4 4 4 4 4 5 4 4 3 3 3 2 1 1 0 2 2 2 2 2 2 1 2 6 9 10 9 9 8 7 7 5 4 4 5 5 4 4 5 6 5 6 6 5 4 5 4 4 4 4 4 4 3 2
7 7 7 7 7 7 6 6 6 6 6 6 6 6 6 6 5 6 6 7 6 5 4 4 5 5 4 5 5 5 6 5 5 6 4 5 5 5 4 4 4 4 3 3 2 1 1 1 2 2 2 1 1 2 6 9 10 10 9 8 8 9 8 7 7 7 7 7 6 6 6 6 7 6 5 5 5 5 5 4 5 5 5 5 6
6 6 6 7 7 6 5 5 6 6 6 6 6 4 5 6 7 5 6 5 7 7 7 5 4 4 5 5 5 4 6 6 6 6 7 6 6 7 8 7 6 5 5 4 3 2 1 1 1 1 1 1 2 2 1 5 9 10 10 10 9 9 9 9 9 9 8 7 7 7 7 8 7 7 6 6 6 6 6 5 5 5 6 5 6
5 5 6 6 6 6 6 7 6 6 6 6 4 4 4 5 7 6 4 5 6 6 6 5 3 3 4 4 3 4 3 4 4 4 6 6 7 7 6 7 7 6 6 5 4 4 4 2 1 1 1 2 2 4 4 2 2 9 11 10 11 11 10 10 10 10 10 10 9 8 8 9 9 8 8 7 7 7 6 6 6 6 6 5 5
1 3 5 6 5 5 6 5 6 6 6 6 6 6 9 7 7 7 6 2 0 3 3 4 1 0 2 3 3 3 4 4 4 4 5 5 5 2 4 5 6 5 5 6 6 5 5 4 3 4 3 3 3 3 3 2 3 5 10 11 12 12 11 11 10 10 9 11 11 9 9 9 8 8 8 8 7 7 7 7 7 7 6 5 6
5 5 5 3 1 1 3 4 3 4 6 8 9 10 8 7 6 4 6 5 3 2 3 5 4 0 2 3 5 3 3 2 4 5 6 5 3 5 5 4 4 4 6 4 4 4 4 4 5 5 5 4 4 5 4 3 4 6 8 10 13 14 14 13 12 12 11 10 11 9 9 9 9 9 8 8 8 8 8 8 8 7 7 7 6
6 4 4 4 3 3 2 1 1 5 7 4 3 2 3 4 4 3 2 6 6 5 5 6 0 5 2 3 4 6 4 4 5 6 6 4 4 5 6 6 6 6 4 4 5 5 5 5 4 5 4 5 5 5 5 4 5 7 9 10 12 15 16 16 15 13 12 12 11 11 11 11 9 10 9 8 8 8 8 9 9 8 7 7 7
6 6 5 4 3 2 2 2 1 3 2 1 2 5 5 6 6 7 4 1 2 2 5 7 6 3 2 1 4 2 4 5 6 7 4 5 5 6 7 6 7 5 5 5 6 6 5 5 5 5 5 5 5 5 5 5 6 7 8 9 10 13 16 19 17 16 14 14 13 12 12 11 11 11 10 9 9 9 9 10 9 9 8 8 8
9 8 6 6 4 3 2 1 0 0 1 2 1 3 2 3 5 6 4 4 3 5 6 8 5 7 3 7 3 1 6 7 9 6 6 8 6 8 4 7 6 5 4 7 7 6 6 6 7 6 6 6 5 5 6 5 7 8 9 8 8 12 15 17 20 18 17 15 14 14 13 12 12 12 11 10 10 10 10 10 9 9 10 9 9
6 7 7 6 5 4 3 1 0 0 1 2 2 4 3 3 3 4 5 7 6 4 4 6 7 7 6 3 1 2 6 4 1 6 2 5 8 7 6 6 7 7 6 7 5 7 7 6 6 6 7 6 5 6 6 5 5 5 6 8 9 9 12 16 19 21 19 17 16 15 14 13 13 13 12 11 10 10 10 11 10 10 10 10 10
8 7 6 6 6 4 4 3 2 1 1 2 2 2 3 4 5 5 6 5 6 5 5 4 8 8 5 3 4 4 1 2 1 7 2 4 4 4 6 7 5 6 6 7 7 7 5 7 6 8 7 6 6 6 6 6 5 6 6 7 9 11 11 14 18 21 21 18 17 17 16 15 14 13 12 11 11 11 11 11 11 11 10 10 11
12 11 11 10 8 7 5 3 2 1 1 1 3 4 4 4 3 4 6 6 4 6 7 6 3 7 7 8 5 2 2 1 5 1 6 1 3 6 7 4 4 5 6 8 8 6 7 7 8 8 7 6 6 6 6 7 7 8 8 9 11 12 12 11 13 20 22 20 19 17 17 15 15 14 13 12 11 12 12 12 12 11 11 11 12
11 11 12 11 11 11 9 6 5 3 1 1 3 3 3 3 2 3 3 4 5 7 7 6 7 5 8 12 10 6 3 1 3 3 3 6 5 2 3 5 5 6 7 8 9 9 9 8 8 7 6 7 7 7 7 7 7 7 7 11 13 14 12 9 9 12 16 19 20 19 18 16 15 15 14 12 12 12 13 13 13 12 12 12 13
10 10 11 11 10 10 10 10 9 7 3 3 3 3 3 3 3 3 4 5 5 6 6 6 6 8 5 6 8 10 8 7 3 2 4 4 7 4 5 2 3 6 8 9 8 9 10 9 8 8 7 8 8 7 7 7 7 7 8 12 14 15 14 12 6 7 10 13 18 20 20 17 16 16 15 14 13 13 14 14 13 14 13 13 13
10 10 11 11 10 10 10 10 9 9 7 4 3 4 4 3 3 4 3 4 4 5 7 6 6 6 7 5 6 4 7 7 6 6 5 6 13 7 5 7 8 8 10 10 12 11 8 7 7 8 8 8 8 8 7 8 8 7 8 12 14 15 15 13 11 8 10 12 14 17 18 17 16 17 16 15 14 14 14 15 15 14 14 14 14
9 9 10 11 11 9 9 9 8 9 9 9 8 6 5 3 4 4 4 4 5 5 6 6 7 7 7 6 8 8 9 8 8 7 9 9 6 8 5 7 9 8 6 10 10 9 8 7 8 9 10 9 8 7 8 9 9 9 11 13 15 16 17 16 15 13 11 11 14 15 16 16 16 16 17 17 15 15 15 16 16 15 15 15 14
10 10 11 11 10 10 10 9 9 9 9 8 8 7 7 4 4 3 4 4 4 5 5 6 6 7 8 7 8 7 8 8 6 6 8 9 8 13 8 3 5 7 6 3 4 8 9 10 10 10 10 9 8 8 8 9 9 14 12 14 16 19 19 20 19 16 15 15 14 14 15 15 15 15 17 18 17 17 16 17 16 16 15 15 15
9 9 11 12 10 10 10 9 9 9 9 8 8 8 7 7 6 5 4 4 5 5 5 6 7 7 7 7 7 7 9 7 6 7 6 6 7 11 7 3 11 5 4 4 5 3 8 9 10 10 10 9 9 9 9 9 9 12 15 10 18 18 19 20 20 20 19 17 16 16 15 15 15 15 17 18 18 17 17 17 17 17 17 16 16
8 8 7 8 8 8 8 9 8 9 9 9 9 8 7 7 6 6 6 6 4 4 5 6 6 7 6 7 7 7 7 6 7 6 7 6 9 10 10 6 4 8 3 2 2 2 4 8 10 10 9 9 10 9 8 10 10 12 17 12 13 18 19 20 22 21 21 20 19 18 17 16 17 16 17 18 18 17 18 18 18 18 18 17 17
7 7 7 8 7 8 8 8 8 8 9 9 9 9 9 8 7 6 5 5 5 4 5 5 7 7 6 7 8 7 7 6 6 7 6 9 9 9 7 12 11 8 7 5 4 9 6 3 8 9 10 10 10 9 11 10 12 13 15 12 10 18 19 22 23 23 22 22 21 20 19 18 18 18 17 17 18 18 18 19 19 19 18 18 17
7 8 9 8 9 9 8 7 7 8 7 7 7 7 8 8 8 7 8 5 5 6 6 4 6 7 7 7 6 8 7 7 7 7 7 7 8 7 7 10 11 14 8 9 6 8 6 8 3 9 10 11 10 11 12 12 9 13 16 10 10 11 18 22 23 23 23 22 22 21 21 20 20 20 19 19 18 18 18 18 19 18 19 18 17
5 5 6 7 7 8 9 9 9 8 7 7 7 6 6 6 7 8 8 7 6 7 6 6 6 6 6 6 7 7 7 6 6 6 7 7 6 7 7 10 10 11 12 12 12 7 4 10 7 6 12 11 11 10 10 10 12 13 10 11 11 10 13 22 23 23 24 24 23 23 22 22 21 21 21 20 20 19 18 18 17 16 5 12 20
3 4 4 6 5 6 6 7 7 8 9 8 7 8 7 6 5 6 6 6 6 6 6 6 7 6 6 6 6 7 6 6 7 6 6 7 7 7 7 8 8 13 13 12 15 6 6 5 9 6 6 11 10 10 10 11 15 15 11 12 12 12 15 21 22 23 24 24 23 23 24 23 22 22 22 21 21 21 20 20 18 15 5 7 7
5 5 5 5 6 6 5 6 6 6 6 7 8 8 8 8 8 7 6 5 6 7 7 6 6 6 6 7 6 7 6 7 7 6 6 6 7 7 7 6 8 11 12 11 14 9 6 8 8 8 8 10 10 10 9 10 12 15 12 11 12 14 17 15 19 21 23 24 23 23 24 24 24 23 23 22 22 22 22 21 20 21 12 11 13
6 5 6 6 7 7 6 6 7 6 6 6 5 6 7 7 8 8 8 6 6 6 7 6 5 6 6 7 7 7 7 6 7 6 7 6 6 7 7 7 9 8 8 10 14 18 4 7 6 9 11 9 9 10 10 9 10 15 10 11 13 14 11 10 18 22 22 23 24 24 24 24 24 25 24 24 23 23 23 22 22 21 20 18 18
8 9 8 9 8 8 9 9 9 9 9 9 7 6 6 6 7 7 8 8 8 7 6 8 5 5 6 8 8 7 6 7 7 7 7 6 6 7 6 7 8 7 8 9 14 17 8 5 4 6 6 6 6 9 10 10 9 9 11 11 10 10 10 10 11 19 22 22 24 24 24 24 24 24 25 25 24 24 24 24 23 22 21 21 22
7 8 9 9 8 8 7 8 7 7 8 8 9 7 8 8 8 6 6 7 8 9 7 8 8 6 6 7 8 8 7 8 8 8 7 7 7 7 7 7 8 9 7 9 13 12 17 5 6 4 3 6 10 5 12 12 11 9 11 11 9 10 11 10 10 11 21 22 23 23 24 24 24 24 25 24 25 25 25 25 24 23 23 23 22
6 6 7 8 9 10 11 11 11 10 10 9 8 7 8 9 10 9 7 7 8 8 9 9 8 7 8 7 8 7 6 8 8 7 7 8 7 8 9 7 9 9 7 9 10 14 15 12 6 8 6 5 10 9 10 11 12 12 13 12 12 10 10 11 10 9 14 22 24 24 24 25 24 24 24 25 25 25 25 25 25 24 24 23 23
7 7 5 7 7 8 9 10 10 11 12 11 11 9 9 9 10 11 10 9 9 9 10 10 9 8 8 9 8 6 5 8 9 8 7 7 8 8 9 8 8 9 8 8 11 12 11 13 7 7 5 7 9 6 6 8 9 8 10 9 8 9 9 8 10 10 11 19 23 24 24 25 26 24 25 25 25 25 25 25 26 25 25 24 23
7 7 7 5 6 6 8 8 9 9 10 11 12 13 12 8 8 9 10 10 10 10 10 10 10 10 10 9 10 7 6 7 8 8 7 8 8 8 9 9 8 8 7 8 10 10 12 14 11 5 6 7 5 5 6 8 7 7 5 9 10 10 9 7 6 7 8 16 21 23 22 24 27 27 25 25 25 25 25 26 26 26 25 25 24
7 6 7 8 7 10 10 10 9 10 9 9 10 11 12 12 13 12 11 10 10 10 10 10 10 9 10 11 10 9 7 8 9 9 8 9 9 9 10 10 9 8 8 9 9 10 11 13 11 10 5 7 6 6 7 8 9 9 8 8 5 5 7 7 8 7 8 8 9 12 18 20 24 27 26 25 26 26 26 27 27 27 25 24 24
7 8 7 8 8 8 10 10 10 11 11 11 10 10 10 10 10 12 13 14 13 11 10 11 11 10 11 11 11 10 10 9 10 10 9 9 9 10 10 10 9 8 9 10 9 10 12 12 11 10 10 7 8 10 6 8 10 11 13 10 10 7 6 10 11 9 8 9 11 14 12 11 12 15 23 27 27 27 26 26 27 28 25 22 23
9 9 10 11 11 9 10 10 10 9 9 10 10 9 8 8 9 10 11 12 13 14 15 14 12 11 11 11 11 11 11 10 10 11 10 10 9 10 9 9 9 9 10 10 9 9 11 11 12 11 8 8 7 6 0 4 7 9 9 8 12 10 11 11 12 11 9 9 10 9 10 10 11 14 18 23 28 26 26 25 28 26 24 23 24
9 10 11 12 13 13 12 11 11 10 10 10 8 7 8 10 9 10 11 11 12 13 13 14 15 15 14 11 11 11 11 14 18 17 16 14 10 10 10 9 8 9 9 9 10 9 10 11 12 10 9 8 8 9 8 9 13 14 5 5 10 10 8 7 9 9 8 10 10 8 9 11 10 10 11 12 15 22 22 24 19 25 24 24 25
11 11 12 12 11 12 13 13 12 11 11 9 10 18 18 13 12 11 10 11 11 12 13 14 15 15 15 15 14 18 18 19 19 20 20 21 21 16 13 11 10 10 10 10 11 10 10 11 12 11 11 11 11 10 11 12 10 5 6 10 12 6 4 9 8 9 9 9 8 10 11 9 10 11 11 13 13 14 12 14 14 16 20 27 26
12 12 12 13 12 11 12 13 14 13 12 11 22 23 24 26 18 13 12 12 12 13 13 14 14 15 14 13 13 15 16 16 15 18 20 22 21 23 25 23 18 13 11 12 12 11 11 11 11 11 11 13 14 10 12 10 8 11 11 10 10 8 10 11 14 5 9 11 11 9 10 9 11 13 13 14 13 12 13 14 20 21 23 27 28
12 11 12 12 13 13 12 13 13 13 13 18 26 26 26 26 24 17 13 13 12 13 13 13 12 12 11 12 11 11 11 14 15 15 16 19 22 22 24 24 24 24 22 16 14 12 12 12 13 13 11 14 13 10 9 9 9 9 10 9 11 13 12 13 13 13 5 14 10 10 14 9 11 13 14 14 13 12 13 14 21 26 25 26 28
11 12 13 14 14 13 13 13 14 13 12 20 26 27 27 27 27 23 13 14 13 13 13 13 13 12 12 13 12 11 10 21 17 14 14 15 16 20 20 23 25 25 25 27 25 19 13 14 13 15 14 13 14 12 9 10 8 12 10 11 11 12 12 13 14 11 4 13 11 11 14 12 13 14 15 15 12 11 11 16 24 26 27 27 28
11 12 12 13 13 12 12 12 13 13 13 19 26 27 27 28 27 24 14 14 13 13 14 12 12 13 13 11 13 13 12 11 13 15 16 16 16 16 14 14 14 16 19 24 26 27 23 16 15 17 16 13 14 12 9 8 11 13 11 13 12 12 13 16 13 7 6 13 17 13 12 10 11 12 14 13 10 11 12 16 25 27 28 28 27
11 12 12 13 12 11 11 12 13 15 13 24 26 28 27 27 27 24 14 15 13 13 12 12 12 12 13 13 13 14 13 14 12 18 17 17 16 15 15 16 15 15 15 14 14 14 14 14 16 18 19 17 15 15 10 8 13 13 13 14 15 14 13 12 10 9 8 11 12 10 14 12 10 11 15 13 10 12 12 15 24 27 29 28 28
9 9 11 9 11 12 11 11 13 14 14 24 25 26 26 25 28 17 14 15 15 16 17 18 18 16 14 13 12 13 14 13 20 29 26 21 19 21 21 19 16 15 16 16 18 18 17 15 14 15 16 17 15 14 12 9 9 9 8 7 6 7 8 9 13 9 11 8 12 13 10 9 8 13 14 8 8 12 11 10 19 27 29 30 29
10 10 9 10 9 11 12 11 13 14 12 18 24 26 26 27 22 13 13 12 13 13 16 17 16 16 15 12 12 13 16 17 24 29 29 27 20 21 21 22 20 18 17 16 22 26 25 25 24 23 23 24 23 22 21 21 15 8 7 8 11 9 10 12 13 10 11 8 10 13 11 10 7 12 10 6 10 12 10 11 11 20 27 30 29
10 9 9 10 9 9 12 13 11 13 12 17 25 26 26 26 23 16 13 13 14 13 15 15 14 15 17 24 22 18 18 17 22 25 26 22 18 18 18 19 19 20 19 17 14 14 21 23 25 28 28 27 27 24 22 22 24 18 10 14 11 10 13 12 15 12 8 8 10 13 9 13 6 6 4 1 3 5 9 9 9 11 20 24 31
10 8 10 10 10 9 10 12 18 18 14 16 24 25 26 25 20 13 13 12 14 15 14 15 13 14 15 17 25 24 22 25 32 30 31 25 18 18 18 19 21 21 18 15 16 15 13 13 14 15 17 22 21 17 16 24 24 21 15 15 11 12 12 14 14 9 9 11 12 15 13 11 8 4 8 4 5 4 5 7 9 10 11 11 15
Wind_Direction
181 186 161 187 179 177 176 185 180 178 167 181 170 168 169 165 164 166 172 176 192 208 203 207 194 182 169 184 174 175 164 159 163 166 173 173 178 167 89 304 319 250 268 201 190 205 179 194 209 198 190 161 211 197 169 176 191 214 229 187 139 116 141 137 223 178 228 123 116 72 99 145 135 122 138 102 151 94 86 76 63 61 58 59 60
184 174 175 185 180 181 184 186 184 176 177 181 185 168 172 168 165 168 175 182 187 209 180 189 192 184 181 169 180 182 174 166 170 172 176 175 187 174 139 151 335 154 197 219 194 195 199 195 207 215 205 175 195 227 199 176 190 195 229 201 131 134 151 205 160 202 166 115 106 134 174 156 138 76 122 113 63 39 352 164 64 54 56 50 55
179 177 183 180 180 181 193 179 186 190 182 181 171 179 171 179 175 173 179 182 201 197 189 176 188 191 190 169 189 180 184 175 165 170 168 182 178 175 160 125 120 78 182 196 205 199 202 198 204 215 197 203 198 221 194 189 184 170 220 202 185 162 163 204 195 167 214 203 166 189 181 165 174 148 136 164 164 131 117 59 18 6 81 56 62
180 179 182 178 182 185 183 182 195 185 186 175 174 170 172 175 170 170 175 175 195 205 218 175 192 202 187 191 180 186 190 176 170 177 180 178 180 172 158 114 92 87 53 143 173 179 189 171 162 194 204 289 230 209 189 209 186 213 195 197 178 148 177 218 192 194 206 210 183 187 167 197 182 166 155 174 141 133 127 143 99 91 49 31 71
190 185 183 180 179 180 184 194 189 183 183 172 164 158 149 155 177 154 162 167 181 214 223 209 189 215 199 205 180 203 200 173 181 176 183 185 184 173 164 138 80 64 64 54 89 126 132 136 133 117 23 290 275 217 215 209 193 170 202 214 181 209 216 191 201 199 206 210 200 195 183 198 199 175 180 180 184 184 184 173 176 165 134 131 116
183 188 181 176 178 185 185 190 188 181 171 158 169 165 162 161 180 158 186 181 198 204 192 213 228 216 213 202 193 204 193 192 184 190 181 186 185 170 171 159 124 91 43 54 48 75 109 118 110 82 53 349 323 258 237 184 171 158 188 235 172 192 193 189 203 206 208 211 210 205 206 212 203 197 188 196 175 192 193 171 170 161 166 152 149
186 179 184 177 177 187 193 195 178 172 175 177 167 170 166 179 162 180 183 206 204 202 200 206 200 211 213 193 203 208 200 202 195 189 189 189 178 182 175 169 169 147 112 54 43 50 72 97 114 94 77 44 7 302 213 173 162 173 195 215 218 346 182 207 201 205 206 203 211 224 210 215 216 205 194 85 98 201 224 243 238 225 225 355 213
181 177 178 184 184 189 198 177 176 168 178 172 163 174 175 172 185 171 176 214 201 226 215 209 208 215 220 204 209 194 203 212 208 208 207 176 189 185 188 184 179 177 183 189 162 67 83 92 107 94 78 70 64 257 169 173 178 179 198 211 201 203 202 203 193 194 191 204 206 227 217 216 221 212 209 206 219 232 237 240 245 234 240 234 241
180 181 178 184 188 191 188 180 166 171 172 176 183 178 170 178 186 197 186 186 197 211 218 220 216 220 215 209 210 192 197 202 207 209 189 190 191 192 192 197 193 188 181 189 200 222 126 88 75 63 27 64 122 186 197 188 189 193 196 208 199 203 202 192 202 199 197 191 200 206 225 219 225 224 227 226 224 224 228 231 235 237 231 228 222
175 180 187 189 188 185 169 166 165 166 170 172 193 169 176 175 190 202 192 174 196 200 214 213 215 223 226 217 217 199 205 203 209 207 193 198 192 191 198 189 185 193 192 193 197 203 212 197 140 82 0 312 179 169 190 209 200 199 203 201 202 205 200 199 199 195 194 204 201 199 211 221 224 225 226 230 230 225 227 230 233 239 234 217 216
169 173 176 176 179 180 176 177 170 165 163 174 168 167 173 190 192 197 206 208 194 201 195 178 205 244 257 263 276 251 257 245 236 226 217 208 199 202 184 190 186 190 191 190 195 193 193 211 206 239 278 282 244 212 217 208 262 213 207 207 210 211 205 200 204 200 204 216 216 205 209 217 218 220 224 227 230 234 231 228 230 229 235 228 222
141 179 172 169 172 177 181 165 170 163 165 169 178 179 191 190 206 187 192 207 101 160 125 131 64 18 310 310 307 308 277 258 257 241 232 227 229 208 203 200 196 192 189 195 189 194 193 200 208 221 230 251 268 276 254 275 287 249 222 219 215 213 207 208 210 208 207 217 224 215 214 217 224 224 218 222 230 235 237 237 226 226 226 230 227
36 22 9 4 351 127 149 152 154 174 178 192 191 194 195 191 178 167 175 186 227 148 160 131 130 219 352 330 310 306 295 307 266 253 242 235 232 210 229 205 211 193 206 195 196 197 201 204 213 219 223 223 239 235 245 246 263 255 240 236 230 220 215 218 218 222 220 225 227 224 219 218 222 226 227 217 223 229 235 236 233 221 224 221 223
31 48 50 46 36 19 355 342 207 203 202 187 171 171 150 161 146 171 198 184 211 178 175 125 219 195 197 289 312 301 285 306 277 255 241 247 228 221 217 211 209 209 199 190 203 203 205 211 217 223 229 228 228 233 237 235 247 252 250 242 238 235 225 223 225 227 225 227 226 227 226 221 220 223 225 225 223 226 225 231 230 225 225 223 223
31 33 37 38 55 62 40 40 15 1 340 248 169 183 187 184 179 188 199 224 205 166 178 197 182 127 112 64 284 290 308 274 262 250 246 235 230 227 221 218 217 206 196 197 209 208 209 207 212 217 227 230 231 234 234 234 228 238 251 264 265 258 243 227 227 224 225 226 227 227 228 222 221 223 222 221 223 225 225 225 223 226 226 225 221
15 20 29 32 35 50 66 72 65 103 236 294 278 254 197 189 190 211 176 192 209 223 192 202 147 136 259 212 228 151 300 259 239 247 203 223 223 229 222 223 222 216 198 208 211 212 216 201 210 210 218 221 223 228 233 235 238 238 241 248 263 263 267 253 226 223 223 220 227 227 225 220 223 222 219 218 220 228 228 231 223 224 225 226 226
21 21 25 24 30 30 35 34 59 147 166 250 241 230 224 230 215 210 199 208 221 220 216 204 216 218 172 96 342 276 228 251 348 277 227 220 235 232 226 225 221 215 210 226 217 217 213 211 214 215 219 217 220 221 226 233 238 239 243 244 248 261 265 265 246 227 224 218 217 225 223 218 222 223 218 216 222 231 232 231 225 222 221 221 223
10 13 21 20 19 32 35 29 1 342 223 234 252 267 244 224 212 214 222 232 234 211 235 222 225 233 231 208 148 182 224 270 89 278 324 239 258 240 233 231 226 220 226 229 223 226 219 222 213 220 218 218 215 217 218 224 224 230 231 242 238 244 254 258 262 244 227 217 218 222 224 221 226 223 220 220 223 230 232 229 225 227 223 220 222
6 9 3 5 2 7 23 33 9 351 318 276 272 253 246 231 223 208 221 223 219 239 225 228 227 251 253 254 258 197 156 122 246 340 313 317 250 236 248 253 247 243 237 235 232 228 228 222 222 221 220 219 215 215 216 219 220 219 224 226 235 237 241 257 257 255 233 220 218 222 225 220 223 227 222 221 221 227 232 226 223 223 224 224 220
17 13 12 9 4 358 355 359 6 3 352 289 270 284 293 281 236 238 247 235 218 227 236 215 214 227 214 242 250 235 178 164 169 216 257 287 303 299 274 246 245 243 240 240 231 224 225 223 225 219 220 222 217 214 215 215 217 219 220 223 226 232 234 239 249 245 230 218 218 221 226 225 227 230 229 223 222 227 233 230 223 222 223 224 221
19 15 12 10 8 2 356 353 349 350 -0 335 317 324 300 293 285 253 233 237 225 231 235 233 217 236 225 241 240 247 244 229 210 168 238 279 271 225 262 289 247 250 245 236 238 230 225 222 217 217 217 222 216 217 215 214 217 216 221 220 222 225 225 224 226 221 208 216 217 221 227 224 227 231 231 227 230 230 229 230 226 223 223 223 222
11 14 13 8 6 4 2 357 349 340 341 331 321 330 321 311 292 282 273 258 249 235 235 244 237 240 232 241 233 242 254 267 250 247 253 207 257 262 223 227 242 240 230 232 229 228 227 224 219 221 222 220 216 214 214 216 216 214 219 217 220 221 221 216 211 205 205 205 215 221 223 222 226 228 227 227 227 230 229 228 227 223 222 223 222
11 11 15 7 1 3 2 355 356 356 349 346 336 325 310 305 301 313 297 276 269 261 254 251 251 249 242 234 243 231 237 236 238 225 233 251 265 261 253 225 229 255 247 232 233 229 220 215 221 222 221 220 216 210 213 219 217 218 210 215 219 219 219 214 208 204 198 197 204 209 215 219 225 228 227 226 224 225 227 227 229 225 224 223 220
14 12 10 5 5 358 356 359 1 357 356 344 342 338 330 328 318 304 293 289 290 286 276 265 255 254 252 246 246 245 248 247 243 223 228 244 241 262 257 260 275 237 268 307 256 227 217 219 222 223 221 220 217 210 215 215 220 218 214 218 218 219 219 217 212 206 204 201 201 204 208 215 222 228 230 228 222 224 222 226 228 226 223 223 221
12 10 4 1 1 3 1 358 353 350 345 351 345 344 342 335 330 324 303 289 277 274 273 266 261 256 256 251 250 247 248 248 245 241 241 247 244 262 257 182 256 272 265 234 256 238 223 226 222 225 223 219 218 213 213 213 218 217 213 220 219 219 220 220 217 212 209 206 206 205 206 210 215 221 228 226 222 223 222 224 223 223 223 222 220
2 9 356 356 3 1 358 356 355 351 350 347 347 342 342 338 328 326 319 305 300 279 268 271 273 271 275 273 264 256 254 245 244 238 240 238 247 247 264 256 214 259 283 258 268 230 259 224 222 222 219 218 220 215 211 214 218 212 211 211 219 219 218 219 219 215 211 209 209 209 209 211 213 216 221 222 220 223 225 226 222 219 221 221 219
3 347 355 1 360 -0 0 359 355 353 351 350 347 344 342 338 333 320 316 309 307 297 280 273 276 274 268 257 263 263 262 255 249 248 237 236 242 246 240 265 269 245 259 239 262 221 234 268 220 225 219 220 219 216 216 214 216 207 208 210 219 221 219 219 220 218 214 210 209 209 209 210 213 214 215 220 220 222 227 229 226 221 219 220 218
356 357 355 358 357 355 355 355 351 351 351 347 345 344 339 338 330 333 325 319 319 311 295 285 275 271 269 274 273 265 259 255 248 249 247 241 239 245 235 247 259 273 253 262 238 255 204 234 265 220 215 218 219 217 219 216 217 206 204 208 214 220 220 219 219 219 215 211 208 207 207 207 209 213 216 218 223 225 227 230 230 225 221 222 225
344 347 346 349 352 354 349 347 348 346 343 345 340 339 337 333 331 329 325 322 324 309 304 296 280 276 275 267 262 270 269 262 253 252 253 254 247 243 231 238 244 256 266 264 257 241 246 209 225 234 205 214 217 216 215 214 216 205 201 207 212 215 218 218 218 219 217 213 209 207 206 205 207 210 215 215 218 222 224 228 234 233 244 231 226
329 326 335 334 334 342 338 334 337 339 339 336 338 334 336 332 320 315 307 315 315 309 302 294 289 283 276 279 269 268 266 268 259 246 248 248 250 241 239 240 233 246 257 262 268 195 243 228 216 231 204 218 216 217 211 217 216 203 205 207 211 215 214 216 217 219 220 218 212 208 206 205 206 209 213 214 215 216 219 222 222 222 184 210 194
335 333 333 330 327 327 329 322 324 323 325 329 333 333 333 329 328 321 318 324 321 312 302 301 294 295 287 283 279 273 267 265 265 258 247 247 249 246 247 236 239 242 253 259 272 255 170 227 231 230 219 217 210 215 213 219 215 205 206 209 214 214 211 216 218 220 222 222 216 211 208 206 206 208 210 212 213 213 216 217 214 218 202 208 210
337 333 335 334 332 329 326 320 314 314 312 308 314 316 321 321 319 322 317 322 316 309 305 301 295 291 288 285 280 276 277 273 271 266 260 243 239 247 243 241 246 239 245 253 253 265 181 226 216 226 221 218 207 209 214 217 219 209 209 212 217 213 209 215 220 220 222 223 219 214 211 208 207 207 209 211 211 212 213 214 213 214 215 217 217
336 333 333 331 327 328 327 328 327 323 322 317 314 308 305 299 303 305 311 316 315 308 304 303 297 292 288 285 284 277 275 274 271 269 269 258 247 244 242 243 248 240 233 247 257 268 264 243 239 229 234 211 234 210 214 214 213 214 212 218 212 206 207 211 216 221 221 222 222 219 214 211 209 208 209 211 212 212 212 211 210 209 211 212 214
328 320 321 323 320 316 312 307 307 305 306 307 311 313 308 305 298 290 293 301 304 305 308 304 304 297 286 285 287 287 277 272 275 274 268 270 258 252 245 234 244 246 218 239 257 263 271 247 270 263 266 199 235 200 208 207 215 209 214 215 210 206 208 209 211 217 218 219 221 221 219 215 212 210 210 211 213 213 213 210 209 207 207 208 209
309 305 305 310 313 316 317 315 316 315 311 307 305 306 305 305 303 302 297 292 291 291 295 292 294 298 298 289 283 281 283 281 276 267 267 266 262 259 258 236 244 246 231 226 248 261 266 266 220 246 225 224 217 220 209 219 216 207 210 211 207 208 212 208 210 216 216 218 219 221 221 219 216 214 211 212 213 214 213 212 210 207 206 206 206
297 291 289 290 292 293 294 297 303 306 309 308 306 300 295 298 300 301 305 303 294 288 285 287 287 287 284 290 287 279 274 278 279 278 267 259 261 262 262 256 245 250 237 229 232 250 263 270 237 224 225 216 238 237 220 226 220 216 217 221 216 217 214 209 213 216 217 219 220 221 222 221 222 217 215 213 213 214 214 214 212 209 206 205 205
300 301 298 282 281 279 279 283 286 288 293 299 302 304 302 294 287 292 296 298 297 294 289 284 282 281 279 273 276 279 272 273 276 275 272 268 263 260 261 261 254 252 247 234 240 239 255 258 262 220 232 236 248 233 209 204 220 226 223 220 215 217 214 213 213 218 215 221 224 224 224 223 224 221 216 215 214 215 215 216 214 212 208 205 205
291 288 287 297 294 296 296 293 289 287 284 282 284 288 294 303 308 305 299 292 290 289 290 290 287 280 275 274 274 272 270 266 270 271 268 266 265 263 263 263 258 255 254 249 243 248 247 256 256 259 224 233 246 233 208 202 203 213 226 229 227 215 206 210 216 213 211 210 213 222 225 225 224 222 218 217 216 215 215 217 216 214 210 206 205
296 299 294 289 291 286 288 289 287 287 288 286 286 287 291 293 296 298 302 304 301 296 287 285 283 281 276 274 273 269 265 262 266 266 265 265 262 260 259 263 260 258 256 254 249 247 250 256 258 245 247 224 218 239 222 204 216 210 208 204 222 212 203 210 221 216 212 216 221 222 222 221 224 224 224 221 219 217 216 217 219 217 213 206 204
313 311 310 309 304 300 293 291 287 284 281 281 280 279 280 283 286 286 287 289 292 296 299 296 290 280 275 272 271 269 263 261 262 267 264 263 261 263 259 256 257 256 256 259 255 250 253 256 254 257 237 232 224 241 106 180 229 244 228 208 215 206 210 214 217 212 210 209 215 219 226 224 223 225 227 227 226 222 218 217 219 217 213 206 205
313 312 310 309 308 306 303 298 297 293 288 286 287 288 289 287 280 279 281 281 284 287 288 291 294 295 290 281 272 268 263 262 261 262 262 258 260 266 261 255 251 253 255 255 254 252 253 254 259 254 249 234 226 212 206 206 209 225 192 186 229 222 212 223 234 224 204 204 215 209 217 211 215 217 219 223 224 222 221 216 216 216 211 208 206
314 311 308 306 303 302 304 305 302 301 297 295 295 301 303 302 299 296 292 290 289 287 287 289 288 288 289 289 287 280 276 274 271 267 263 263 261 256 259 259 253 252 249 253 252 249 251 254 253 254 249 244 234 217 218 219 216 200 178 203 224 212 158 227 243 225 206 198 197 212 218 204 207 219 217 226 227 217 221 214 212 207 209 211 208
312 310 309 309 307 307 308 308 307 304 302 302 306 308 308 307 306 302 299 294 290 286 283 282 282 285 286 288 289 291 290 286 281 274 269 263 257 261 262 259 252 246 253 251 250 246 248 249 253 250 247 251 245 223 222 220 203 203 210 203 214 194 202 204 229 226 193 185 206 212 226 203 199 215 217 222 220 215 218 216 212 204 207 211 213
313 313 312 311 312 316 313 310 306 304 304 307 310 311 309 307 305 303 299 294 289 285 283 279 278 280 283 285 285 287 286 285 285 283 276 270 265 261 260 263 263 256 247 243 248 252 243 248 250 248 246 245 251 234 222 212 208 207 215 205 207 207 210 218 227 227 186 179 188 204 232 197 199 217 222 222 217 214 220 214 210 210 207 207 212
317 315 315 316 312 314 313 310 308 306 306 312 312 309 307 306 304 303 296 290 285 283 281 278 278 278 280 282 282 276 276 284 286 284 284 283 275 270 263 264 263 260 257 252 246 244 246 247 249 253 242 247 250 243 219 212 186 211 204 214 213 217 219 224 227 223 144 177 180 213 229 212 190 212 222 223 211 208 216 215 213 212 210 208 209
316 312 312 312 312 313 314 313 308 308 309 316 313 309 308 307 305 303 295 291 285 282 282 279 280 280 277 277 279 278 277 280 282 285 286 285 285 283 278 271 264 260 257 255 255 252 247 244 243 250 251 240 246 248 232 188 195 211 206 216 211 216 217 227 227 211 158 177 189 196 232 218 192 208 225 226 200 209 213 212 214 213 212 209 206
313 312 313 314 311 312 311 312 309 306 310 313 311 309 308 306 304 303 297 297 293 288 283 278 275 273 274 273 274 277 279 278 275 280 284 285 285 282 276 271 266 263 260 256 253 251 248 244 243 244 250 248 244 248 239 197 211 214 210 212 210 214 220 232 240 217 201 197 192 186 228 222 182 201 225 216 197 212 214 210 214 216 216 212 209
298 299 299 301 303 305 305 305 302 301 306 311 308 307 307 307 307 305 302 298 294 291 290 289 288 287 286 285 287 286 285 284 282 281 281 282 282 283 281 278 272 265 261 255 249 246 246 244 245 246 248 247 241 240 238 219 223 224 224 228 226 218 218 227 233 219 220 191 195 199 231 234 158 200 228 203 189 215 212 208 216 218 218 216 213
297 299 296 298 300 299 300 300 299 298 300 306 306 306 306 305 306 299 293 286 284 286 287 288 287 284 280 277 271 273 274 274 278 279 278 277 274 271 270 271 272 271 266 261 254 250 248 244 242 244 247 249 245 239 236 230 226 208 208 211 217 201 215 227 237 225 225 179 204 207 223 236 181 201 218 177 195 212 209 207 212 217 219 218 216
297 294 297 297 293 294 295 295 293 294 297 302 304 304 303 303 301 297 295 290 284 284 287 287 289 289 289 291 291 290 288 285 288 287 285 282 280 281 282 278 273 265 261 260 260 254 249 249 250 251 250 251 250 244 237 232 231 223 202 222 215 204 219 218 233 226 224 203 201 196 208 231 187 192 167 90 200 227 212 208 203 212 221 223 221
288 294 295 294 293 291 287 286 294 297 295 298 300 301 301 301 300 293 291 286 287 288 289 291 290 291 292 294 292 291 289 288 288 286 283 279 273 271 272 275 276 275 271 269 261 260 258 254 253 252 252 252 252 247 240 238 234 229 221 224 218 213 217 223 229 230 235 228 208 180 202 226 199 195 170 126 221 252 211 199 197 203 206 213 218